Regional Weather Roundup
Issued by NWS

Home | Current Version | Previous Version | Graphics & Text | Print | Product List | Glossary On
Versions: 1 2 3 4 5 6 7 8 9 10 11 12 13 14 15 16 17 18 19 20 21 22 23 24 25 26 27 28 29 30 31 32 33 34 35 36 37 38 39 40 41 42 43 44 45 46 47 48 49 50
586
ASUS43 KFSD 290910
RWRSD

WEATHER ROUNDUP FOR SOUTH DAKOTA
NATIONAL WEATHER SERVICE SIOUX FALLS SD
400 AM CDT FRI APR 29 2016

NOTE: "FAIR" INDICATES FEW OR NO CLOUDS BELOW 12,000 FEET WITH NO
SIGNIFICANT WEATHER AND/OR OBSTRUCTIONS TO VISIBILITY.


SDZ001>005-009-010-012>017-291000-
NORTHWEST AND NORTH CENTRAL SOUTH DAKOTA

CITY           SKY/WX    TMP DP  RH WIND       PRES   REMARKS
BUFFALO          N/A     38  35  89 CALM      30.05F
FAITH            N/A     36  31  82 NW8       30.11F
MOBRIDGE       MOCLDY    39  37  92 CALM      30.12S
$$

SDZ012>016-024>037-041>051-057-063-072>074-291000-
SOUTHWEST AND SOUTH CENTRAL SOUTH DAKOTA

CITY           SKY/WX    TMP DP  RH WIND       PRES   REMARKS
RAPID CTY ARPT CLOUDY    36  34  92 NE5       30.10S
PIERRE         CLOUDY    40  38  93 N6        30.11S
CUSTER         CLOUDY    31  28  89 NW5       30.04F WCI  26
ELLSWORTH AFB  CLOUDY    36  36  99 N2        30.10S
PHILIP         CLOUDY    40  36  86 CALM      30.12F
PINE RIDGE     CLOUDY    37  33  85 CALM      30.10S
WINNER         CLOUDY    42  38  85 CALM      30.10F
$$

SDZ004>011-016>023-039-040-291000-
NORTHEAST SOUTH DAKOTA

CITY           SKY/WX    TMP DP  RH WIND       PRES   REMARKS
ABERDEEN       MOCLDY    37  34  89 CALM      30.16F
WATERTOWN      MOCLDY    35  33  92 N3        30.14S
BROOKINGS      MOCLDY    36  34  92 NE5       30.13F
SISSETON         N/A     41  37  86 SW6       30.16R
$$

SDZ017-020-022-023-036>040-048>070-291000-
SOUTHEAST SOUTH DAKOTA

CITY           SKY/WX    TMP DP  RH WIND       PRES   REMARKS
SIOUX FALLS    CLOUDY    40  37  89 NE3       30.13R
HURON          MOCLDY    36  34  92 CALM      30.15S
CHAMBERLAIN    CLOUDY    40  38  93 CALM      30.12F
MITCHELL       CLOUDY    40  37  89 NE5       30.14F
YANKTON        CLOUDY    39  37  93 E5        30.12F
$$

ABBREVIATIONS USED IN REMARKS
   TC - TEMPERATURE IN CELSIUS
  WCI - WIND CHILL INDEX
   HX - HEAT INDEX
  VSB - VISIBILITY





USA.gov is the U.S. government's official web portal to all federal, state and local government web resources and services.